Voltar ao catálogo

FENGYUN 1C DEB

AtivoPO
NORAD 32360·DEBRIS·🇨🇳 China

Lançado May 10, 1999 de Taiyuan Satellite Launch Center

Loading…

Próximas Passagens (próximas 24 horas)

TLE

EnvelhecendoSource: Space-Track

Época: Sep 6, 2026, 16:25 UTC

1 32360U 99025CZD 26249.68419743  .00002553  00000-0  14026-2 0  9994
2 32360  98.1275  42.0242 0221997 268.0714  89.5018 14.00775602685653

Acompanhe FENGYUN 1C DEB em tempo real com AllMySat

Download on the App Store